Flag for Jordan Weather past 2 weeks in Amman, Jordan

Now
55 °F

Clear.


Feels Like: 53 °F
Forecast: 56 / 72 °F
Wind: 8 mph from South

Location: Amman Airport

Current Time: Mar 7, 2015 at 3:14:44 AM

Latest Report: Mar 7, 2015 at 2:00 AM


Visibility: 3 mi

Pressure: 30.21 "Hg

Humidity: 33%

Dew point: 27 °F

Location of AmmanLocation

Historic Weather in Amman — Graph

°F

Amman temperature yesterday

Maximum temperature yesterday: 66 °F (at 2:00 PM)
Minimum temperature yesterday: 46 °F (at 4:00 AM)
Average temperature yesterday: 56 °F

Past Weeks' High & Low Weather Summary

 TemperatureHumidityPressure
High72 °F (Feb 27, 3:00 PM)100% (Feb 20, 5:00 AM)30.27 "Hg (Feb 20, 5:00 AM)
Low30 °F (Feb 20, 4:00 AM)22% (Feb 27, 3:00 PM)29.65 "Hg (Feb 20, 5:00 AM)
Average50 °F66%30.07 "Hg
* Reported Feb 20 2:00 AM — Mar 7 2:00 AM, Amman, Weather by CustomWeather, © 2015

Note: Actual official high and low records may vary slightly from our data, if they occured in-between our weather recording intervals... More about our weather records

Advertising

Amman weather history for previous 24 hours

 ConditionsComfort  
Time TempWeatherWind HumidityBarometerVisibility
2:00 AM
Sat, Mar 7
55 °FClear.8 mph33%30.21 "Hg3 mi
1:00 AM55 °FClear.13 mph33%30.21 "Hg3 mi
12:00 AM57 °FClear.9 mph31%30.21 "Hg3 mi
11:00 PM
Fri, Mar 6
57 °FClear.14 mph31%30.21 "Hg3 mi
10:00 PM59 °FClear.13 mph31%30.21 "Hg3 mi
9:00 PM59 °FClear.6 mph31%30.21 "Hg3 mi
8:00 PM61 °FClear.6 mph29%30.21 "Hg3 mi
7:00 PM61 °FClear.5 mph29%30.21 "Hg2 mi
6:00 PM63 °FClear.9 mph30%30.21 "Hg1 mi
5:00 PM66 °FClear.8 mph28%30.18 "Hg4 mi
4:00 PM66 °FClear.14 mph28%30.18 "Hg4 mi
2:00 PM66 °FClear.9 mph28%30.21 "Hg4 mi
1:00 PM64 °FClear.14 mph30%30.24 "Hg4 mi
12:00 PM61 °FHaze.12 mph31%30.24 "Hg3 mi
11:00 AM57 °FHaze.15 mph36%30.27 "Hg3 mi
10:00 AM55 °FHaze.12 mph38%30.27 "Hg3 mi
9:00 AM54 °FHaze.8 mph38%30.27 "Hg3 mi
8:00 AM50 °FHaze.7 mph43%30.27 "Hg3 mi
7:00 AM48 °FHaze.5 mph43%30.24 "Hg3 mi
6:00 AM46 °FHaze.9 mph46%30.21 "Hg3 mi
5:00 AM46 °FHaze.5 mph50%30.18 "Hg3 mi
4:00 AM46 °FHaze.6 mph50%30.21 "Hg3 mi
3:00 AM48 °FHaze.7 mph43%30.18 "Hg3 mi
Weather by CustomWeather, © 2015

See weather overviewHow to use our weather pages